Location: Newark
(39.6172°N, 96.8533°W)
Time: 02:05:07
(UTC+00:00)

Envisat - Pass Details

Date: 26 January 2020
Orbit: 764 x 766 km, 98.1° (Epoch: 25 February)

Event Time Altitude Azimuth Distance (km) Brightness Sun altitude
Rises 01:47:55 0° 218° (SW) 3,220 6.8 -24.8°
Reaches altitude 10° 01:51:52 10° 249° (WSW) 2,301 6.4 -25.6°
Maximum altitude 01:53:42 12° 271° (W) 2,175 6.3 -25.9°
Drops below altitude 10° 01:55:33 10° 292° (WNW) 2,307 6.3 -26.3°
Sets 01:59:33 0° 324° (NW) 3,240 6.7 -27.1°
